Weather History for Kirksville, MO

Change the Weather History Date:

Sunday, July 7, 2013

  Actual Average Record
Temperature  
Mean Temperature 77 °F 74 °F  
Max Temperature 88 °F 85 °F 106 °F (2012)
Min Temperature 65 °F 64 °F 50 °F (1947)
Degree Days  
Heating Degree Days 0 0  
Month to date heating degree days 0 0  
Since 1 June heating degree days 36 16  
Since 1 July heating degree days 0 0  
Cooling Degree Days 12 10  
Month to date cooling degree days 45 64  
Year to date cooling degree days 320 318  
Since 1 June cooling degree days 252 256  
Growing Degree Days 26 (Base 50)    
Moisture  
Dew Point 66 °F    
Average Humidity 72    
Maximum Humidity 93    
Minimum Humidity 51    
Precipitation  
Precipitation 0.00 in 0.15 in 2.94 in (1978)
Month to date precipitation 0.00 0.90  
Year to date precipitation 27.91 19.83  
Sea Level Pressure  
Sea Level Pressure 29.97 in    
Wind  
Wind Speed 8 mph (SSW)    
Max Wind Speed 16 mph    
Max Gust Speed 22 mph    
Visibility 10 miles    
Events      
T = Trace of Precipitation, MM = Missing Value Source: NWS Daily Summary

Daily Weather History Graph

Daily Weather History Graph

Search for Another Location

Airport:

Trip Planner

Search our weather history database for the weather conditions in past years. The results will help you decide how hot, cold, wet, or windy it might be!

Date:

Astronomy

Jul. 07, 2013 Rise Set
Actual Time 5:48 AM CDT 8:41 PM CDT
Civil Twilight 5:15 AM CDT 9:14 PM CDT
Nautical Twilight 4:34 AM CDT 9:55 PM CDT
Astronomical Twilight 3:47 AM CDT 10:42 PM CDT
Moon 5:24 AM CDT (7/7) 8:05 PM CDT (7/7)
Length of Visible Light 15h 58m
Length of Day
14h 53m
Waning Crescent, 0% of the Moon is Illuminated
Jul 7
Waning Crescent
Jul 8
New
Jul 15
First Quarter
Jul 22
Full
Jul 29
Last Quarter

Hourly Weather History & Observations

Time (CDT) Temp. Heat Index Dew Point Humidity Pressure Visibility Wind Dir Wind Speed Gust Speed Precip Events Conditions
12:55 AM 68.0 °F - 64.0 °F 87% 29.98 in 8.0 mi South 5.8 mph - N/A   Clear
1:55 AM 66.9 °F - 62.1 °F 84% 29.97 in 9.0 mi SSE 5.8 mph - N/A   Clear
2:55 AM 64.9 °F - 62.1 °F 90% 29.96 in 8.0 mi South 3.5 mph - N/A   Clear
3:55 AM 66.0 °F - 62.1 °F 87% 29.96 in 10.0 mi South 5.8 mph - N/A   Clear
4:55 AM 66.0 °F - 63.0 °F 90% 29.97 in 9.0 mi South 6.9 mph - N/A   Clear
5:55 AM 66.9 °F - 63.0 °F 87% 29.98 in 8.0 mi South 6.9 mph - N/A   Clear
6:55 AM 69.1 °F - 64.0 °F 84% 29.98 in 8.0 mi SSW 8.1 mph - N/A   Partly Cloudy
7:55 AM 73.0 °F - 66.0 °F 79% 29.99 in 9.0 mi SSW 6.9 mph - N/A   Clear
8:55 AM 78.1 °F - 66.9 °F 68% 29.98 in 9.0 mi SSW 5.8 mph - N/A   Clear
9:55 AM 79.0 °F - 66.9 °F 66% 29.99 in 10.0 mi SW 9.2 mph - N/A   Clear
10:55 AM 81.0 °F 83.8 °F 68.0 °F 65% 29.99 in 10.0 mi SW 10.4 mph - N/A   Mostly Cloudy
11:55 AM 84.9 °F 88.8 °F 69.1 °F 59% 29.99 in 10.0 mi SSW 11.5 mph 16.1 mph N/A   Clear
12:55 PM 86.0 °F 90.1 °F 69.1 °F 57% 29.99 in 10.0 mi SSW 11.5 mph 17.3 mph N/A   Partly Cloudy
1:55 PM 84.9 °F 87.6 °F 66.9 °F 55% 29.99 in 10.0 mi South 12.7 mph 18.4 mph N/A   Overcast
2:55 PM 86.0 °F 88.8 °F 66.9 °F 53% 29.98 in 10.0 mi South 12.7 mph 20.7 mph N/A   Mostly Cloudy
3:55 PM 87.1 °F 90.6 °F 68.0 °F 53% 29.96 in 10.0 mi South 11.5 mph - N/A   Clear
4:55 PM 86.0 °F 89.4 °F 68.0 °F 55% 29.96 in 10.0 mi South 11.5 mph 20.7 mph N/A   Clear
5:55 PM 84.0 °F 86.5 °F 66.9 °F 56% 29.96 in 10.0 mi SSW 8.1 mph - N/A   Clear
6:55 PM 82.0 °F 84.9 °F 68.0 °F 62% 29.95 in 10.0 mi South 8.1 mph - N/A   Clear
7:55 PM 80.1 °F 81.9 °F 64.9 °F 60% 29.95 in 10.0 mi SSW 9.2 mph - N/A   Clear
8:55 PM 78.1 °F - 64.9 °F 64% 29.95 in 10.0 mi South 10.4 mph - N/A   Clear
9:55 PM 77.0 °F - 66.9 °F 71% 29.96 in 10.0 mi South 5.8 mph - N/A   Clear
10:55 PM 75.9 °F - 68.0 °F 76% 29.98 in 10.0 mi South 5.8 mph - N/A   Mostly Cloudy
11:55 PM 75.0 °F - 68.0 °F 79% 30.00 in 10.0 mi South 6.9 mph - N/A   Mostly Cloudy